User: anonymous   Login
Location: Unspecified
(0.0000°N, 0.0000°E)
Time: 20:12:34
(UTC+00:00)
Language:

YUBILEINY - Orbit

View from above orbital plane
View from above orbital plane
View from above satellite
View from above satellite

Ground track
Ground track

The orbit data is extracted from the following two-line orbital elements,

1 32953U 08025A   18115.48296946  .00000006  00000-0 -27006-4 0  9997
2 32953  82.5064  45.4518 0018816 328.6449  31.3508 12.43083028450220
Epoch (UTC): 25 April 2018 11:35:28
Eccentricity: 0.0018816
inclination: 82.5064°
perigee height: 1479 km
apogee height: 1508 km
right ascension of ascending node: 45.4518°
argument of perigee: 328.6449°
revolutions per day: 12.43083028
mean anomaly at epoch: 31.3508°
orbit number at epoch: 45022

The dashed part of the orbit path shows where the satellite is in the earth's shadow,  

DLR